Date,TemperatureHighF,TemperatureAvgF,TemperatureLowF,DewpointHighF,DewpointAvgF,DewpointLowF,HumidityHigh,HumidityAvg,HumidityLow,PressureMaxIn,PressureMinIn,WindSpeedMaxMPH,WindSpeedAvgMPH,GustSpeedMaxMPH,PrecipitationSumIn
2013-1-1,45.1,41.5,36.5,44.1,39.6,31.2,97,93,76,29.81,29.69,4,1,5,0.59
2013-1-2,39.4,36.4,34.9,37.9,31.9,29.6,97,84,77,29.89,29.73,5,2,5,0.01
2013-1-3,50.7,37.3,32.4,31.8,26.1,20.8,81,66,31,30.06,29.87,4,1,4,0.00
2013-1-4,32.9,29.5,26.2,21.3,18.9,17.3,70,64,59,30.08,30.04,2,1,2,0.00
2013-1-5,51.1,38.4,26.4,32.2,23.0,17.6,78,56,33,30.11,29.95,4,1,4,0.01
2013-1-6,50.2,40.9,37.4,37.4,35.0,28.6,93,80,59,29.98,29.84,10,3,10,0.01
2013-1-7,56.3,39.0,27.7,30.5,26.5,20.5,80,63,35,30.13,30.01,5,2,5,0.00
2013-1-8,61.7,42.0,30.7,36.4,29.7,24.3,82,64,34,30.11,30.00,3,1,3,0.00
2013-1-9,47.7,45.1,41.4,46.9,39.8,31.6,97,82,63,30.18,30.03,2,1,2,0.26
2013-1-10,65.3,53.8,47.1,53.3,49.6,46.3,97,87,65,30.16,29.88,4,1,4,0.01
2013-1-11,68.0,60.7,52.7,61.6,56.2,48.6,93,85,76,29.88,29.78,11,3,11,0.02
2013-1-12,64.2,63.3,62.4,62.5,61.6,61.0,97,94,93,29.86,29.80,7,3,7,0.01
2013-1-13,69.3,64.7,60.1,59.3,56.8,53.8,95,76,64,29.77,29.68,10,4,13,0.61
2013-1-14,60.3,41.6,35.4,59.1,40.2,33.5,98,95,92,30.01,29.76,9,2,10,0.85
2013-1-15,42.1,39.7,37.0,41.6,39.1,35.5,99,98,94,29.90,29.70,4,2,6,1.63
2013-1-16,46.8,41.3,39.2,45.7,40.6,38.2,99,97,95,29.79,29.63,5,1,5,0.40
2013-1-17,41.2,35.4,30.6,40.1,32.3,27.4,97,89,73,30.04,29.63,8,1,9,0.45
2013-1-18,51.1,35.6,25.7,35.4,28.1,22.4,91,76,48,30.23,30.05,4,0,4,0.34
2013-1-19,54.3,38.2,25.2,36.2,27.6,21.6,90,68,40,30.12,29.88,7,2,7,0.02
2013-1-20,61.0,47.6,38.8,34.4,29.0,20.5,66,49,33,29.92,29.83,7,2,8,0.00
2013-1-21,51.4,38.1,29.8,24.3,16.1,6.5,67,42,24,29.90,29.80,11,3,14,0.00
2013-1-22,38.8,28.1,20.3,6.4,-1.2,-8.0,42,28,21,30.05,29.91,5,2,5,0.00
2013-1-23,48.2,35.2,22.6,25.2,9.7,-5.0,55,35,24,30.06,29.83,7,3,12,0.00
2013-1-24,41.7,32.8,24.6,30.4,8.2,-3.2,67,37,21,30.11,29.83,8,2,8,0.00
2013-1-25,33.1,29.6,25.0,30.5,22.0,0.0,90,75,31,30.05,29.80,2,0,3,0.00
2013-1-26,50.7,36.1,28.8,36.8,29.8,24.2,91,79,53,30.07,29.88,4,1,5,0.08
2013-1-27,47.5,37.7,25.5,34.9,28.7,21.1,87,71,55,30.14,30.03,4,1,4,0.00
2013-1-28,55.4,48.7,39.2,48.3,41.6,34.3,84,77,59,30.06,29.93,8,3,9,0.00
2013-1-29,69.1,55.9,44.6,54.3,49.2,41.8,93,79,57,29.94,29.61,4,1,4,0.00
2013-1-30,68.5,55.6,44.8,59.3,51.0,40.2,95,85,66,29.59,29.26,16,6,16,1.85
2013-1-31,45.0,38.4,32.2,32.3,23.0,19.3,76,54,39,29.76,29.44,12,6,15,0.00
2013-2-1,40.3,28.4,18.9,30.8,9.3,-0.8,80,46,24,30.09,29.70,9,3,9,0.00
2013-2-2,34.5,29.1,21.7,27.3,20.3,9.4,79,70,52,30.04,29.77,10,3,10,0.01
2013-2-3,47.1,36.3,28.0,35.8,26.3,16.7,90,68,43,29.87,29.70,11,4,15,0.02
2013-2-4,50.7,34.8,25.7,26.6,21.1,16.4,72,58,32,29.86,29.67,6,2,6,0.00
2013-2-5,59.9,48.1,41.5,39.7,33.7,27.0,68,58,42,29.74,29.65,8,3,8,0.00
2013-2-6,65.1,49.0,37.6,37.5,30.4,22.5,74,52,21,29.91,29.76,5,2,5,0.00
2013-2-7,57.0,47.7,42.3,44.1,35.0,29.0,90,63,38,29.86,29.66,2,1,2,0.01
2013-2-8,57.0,45.7,36.9,50.1,38.6,27.3,98,78,50,29.99,29.62,8,3,11,0.06
2013-2-9,60.4,41.0,28.4,28.6,24.0,16.4,80,55,22,30.05,29.94,4,2,4,0.00
2013-2-10,62.1,48.1,40.1,45.4,33.6,24.9,97,62,24,29.95,29.70,6,1,8,0.14
2013-2-11,56.3,50.7,45.7,53.1,44.8,28.3,99,83,45,29.82,29.69,10,3,10,0.04
2013-2-12,57.2,46.3,39.9,39.2,29.6,24.1,89,54,29,29.89,29.59,5,1,5,0.04
2013-2-13,49.8,41.2,37.2,45.8,37.6,32.2,96,87,74,29.70,29.42,11,2,11,0.20
2013-2-14,56.1,44.8,34.7,35.2,32.7,29.5,83,64,44,29.79,29.70,8,2,9,0.00
2013-2-15,55.2,42.6,34.3,38.0,33.2,26.6,83,70,51,29.82,29.74,7,3,7,0.01
2013-2-16,42.1,31.4,26.6,26.9,16.4,6.1,77,55,25,29.82,29.71,12,4,12,0.00
2013-2-17,46.6,34.3,20.8,13.2,8.3,3.0,57,35,21,29.95,29.83,11,2,11,0.00
2013-2-18,61.0,42.9,27.3,28.2,19.1,9.7,57,40,25,30.00,29.71,11,4,11,0.00
2013-2-19,54.9,43.8,34.5,41.6,28.4,11.2,97,61,23,29.88,29.64,14,6,14,0.18
2013-2-20,45.7,34.3,26.2,19.1,12.1,6.8,62,41,22,29.94,29.87,4,2,4,0.00
2013-2-21,55.8,38.1,25.2,37.0,18.7,12.1,95,50,21,29.94,29.71,4,2,4,0.33
2013-2-22,55.9,46.5,38.1,46.7,42.9,37.1,99,88,70,29.77,29.71,11,2,11,0.05
2013-2-23,46.9,45.9,45.7,45.6,44.7,43.6,97,96,88,29.75,29.66,4,1,4,0.06
2013-2-24,61.2,47.0,32.5,36.9,25.0,19.9,79,45,23,29.80,29.64,7,2,8,0.00
2013-2-25,63.3,45.5,34.9,36.4,28.0,21.7,64,52,25,29.77,29.52,5,1,5,0.00
2013-2-26,61.5,47.9,41.4,49.3,41.9,34.5,98,81,56,29.51,29.18,14,4,14,0.28
2013-2-27,48.4,41.0,38.7,36.9,33.6,31.3,87,75,58,29.57,29.42,8,6,10,0.02
2013-2-28,41.7,36.6,34.3,30.9,26.6,23.6,83,67,55,29.70,29.53,10,4,10,0.00
2013-3-1,43.2,37.4,34.0,33.7,30.2,26.8,82,75,62,29.70,29.65,5,2,6,0.02
2013-3-2,46.0,33.8,29.3,34.3,25.6,17.6,89,73,51,29.77,29.64,10,1,10,0.04
2013-3-3,36.1,30.5,24.3,20.5,15.3,12.3,72,53,43,29.80,29.75,6,1,8,0.00
2013-3-4,55.6,37.0,23.4,25.9,18.6,14.0,72,50,22,29.88,29.71,5,1,5,0.00
2013-3-5,46.9,39.9,33.8,46.4,34.7,22.1,98,83,47,29.73,29.35,17,4,20,1.11
2013-3-6,34.3,31.6,28.9,28.2,26.5,22.1,88,81,70,29.95,29.56,6,3,11,0.01
2013-3-7,37.4,33.9,32.0,28.5,26.7,25.0,86,75,66,30.05,29.92,4,1,4,0.00
2013-3-8,57.4,41.1,28.0,28.8,25.8,21.2,81,57,30,30.10,29.99,5,2,5,0.00
2013-3-9,67.8,50.7,32.5,36.1,29.2,23.7,72,47,23,30.01,29.88,6,2,11,0.01
2013-3-10,75.4,60.7,45.7,39.9,33.8,28.0,66,39,21,29.87,29.72,14,3,14,0.00
2013-3-11,65.3,56.6,45.7,54.1,47.1,35.9,99,73,39,29.72,29.51,11,4,11,0.56
2013-3-12,45.0,41.0,38.3,44.2,37.8,32.7,97,88,80,29.70,29.61,3,2,7,0.01
2013-3-13,46.6,39.4,32.9,30.9,23.8,15.6,74,55,37,30.02,29.78,11,3,11,0.00
2013-3-14,48.7,38.8,24.4,26.9,17.7,12.6,68,44,26,30.09,29.94,5,2,9,0.00
2013-3-15,69.8,53.7,34.2,45.1,36.9,28.3,85,56,34,29.96,29.62,8,4,12,0.00
2013-3-16,78.4,67.4,56.5,50.9,47.2,43.2,61,49,35,29.63,29.51,14,7,16,0.00
2013-3-17,76.6,63.8,53.1,52.1,49.2,47.5,84,60,41,29.69,29.57,11,3,11,0.00
2013-3-18,63.5,55.1,51.3,55.6,51.2,47.2,99,88,63,29.63,29.51,12,3,15,0.74
2013-3-19,64.0,50.4,36.9,52.0,26.4,10.2,99,47,19,29.85,29.58,8,3,11,0.01
2013-3-20,61.7,43.9,33.1,34.8,18.4,8.4,86,40,19,29.85,29.60,11,3,15,0.01
2013-3-21,45.9,33.3,22.8,16.3,10.0,6.2,56,39,22,29.71,29.65,8,3,8,0.00
2013-3-22,49.5,37.0,25.2,28.4,18.5,11.0,62,48,26,29.77,29.70,4,1,4,0.00
2013-3-23,57.0,45.8,37.9,44.6,38.6,28.9,92,77,61,29.73,29.49,4,1,6,0.01
2013-3-24,54.9,48.7,41.4,52.9,47.1,34.4,99,94,75,29.51,29.11,11,2,13,0.66
2013-3-25,41.0,34.5,31.3,34.4,29.9,26.4,96,84,61,29.70,29.33,13,6,17,0.02
2013-3-26,40.3,34.9,30.9,31.9,28.7,25.8,94,79,63,29.99,29.72,7,3,7,0.02
2013-3-27,54.3,40.9,31.6,29.1,25.5,21.0,84,57,27,30.03,29.96,5,2,6,0.00
2013-3-28,61.2,45.1,30.9,28.6,21.7,14.1,74,45,20,30.06,29.95,7,2,7,0.00
2013-3-29,50.4,42.8,34.9,42.3,34.2,22.5,99,73,49,30.06,29.95,4,1,6,0.09
2013-3-30,64.8,50.2,41.0,50.0,44.2,40.7,99,82,49,29.95,29.73,4,1,4,0.14
2013-3-31,61.2,54.1,50.2,56.3,52.6,49.9,99,95,76,29.73,29.59,9,2,9,0.35
2013-4-1,65.7,53.8,41.2,53.4,43.0,33.3,99,71,36,29.80,29.62,13,2,13,0.00
2013-4-2,54.5,42.3,35.6,33.3,23.6,17.5,62,49,23,29.95,29.80,4,2,9,0.00
2013-4-3,62.4,51.1,34.7,28.8,21.5,15.3,53,33,21,29.99,29.90,9,2,18,0.00
2013-4-4,47.7,42.7,40.5,42.6,37.4,22.0,99,85,36,29.89,29.70,5,1,5,0.52
2013-4-5,70.0,55.4,39.9,45.9,38.3,29.2,99,59,23,29.82,29.69,5,2,9,0.00
2013-4-6,75.6,59.3,42.4,41.5,38.0,27.0,82,49,18,29.91,29.78,7,2,7,0.00
2013-4-7,76.6,65.4,54.3,48.3,42.8,36.5,62,45,29,29.88,29.77,11,4,16,0.00
2013-4-8,79.5,66.4,55.4,54.7,49.8,45.4,74,56,36,29.82,29.74,12,4,12,0.00
2013-4-9,84.0,71.8,58.3,58.9,54.8,50.9,81,56,40,29.91,29.76,13,3,13,0.00
2013-4-10,88.9,73.0,59.4,60.4,56.6,53.7,83,59,35,29.85,29.62,10,3,10,0.00
2013-4-11,86.5,71.5,59.4,64.0,57.4,55.0,99,64,36,29.64,29.39,11,4,11,0.56
2013-4-12,62.1,59.1,54.3,61.1,58.6,52.9,99,98,95,29.47,29.32,7,3,11,0.19
2013-4-13,78.1,63.0,43.7,45.7,39.2,30.4,92,46,23,29.79,29.67,6,2,8,0.00
2013-4-14,73.2,61.1,47.7,53.1,44.6,37.6,91,58,33,29.78,29.67,5,2,7,0.02
2013-4-15,82.2,67.6,55.0,58.5,54.9,51.7,90,67,42,29.80,29.65,6,1,6,0.00
2013-4-16,84.9,71.4,57.6,63.7,59.9,55.0,95,69,46,29.95,29.83,6,2,6,0.00
2013-4-17,70.5,67.4,64.9,63.4,62.5,61.8,92,84,78,29.93,29.88,3,1,3,0.00
2013-4-18,87.3,72.3,58.8,65.4,58.2,53.4,99,66,35,29.78,29.57,10,3,10,0.00
2013-4-19,73.4,59.2,46.0,63.9,52.2,34.6,99,79,57,29.80,29.42,12,5,14,0.79
2013-4-20,69.1,54.1,36.3,38.7,31.4,25.0,86,47,21,29.99,29.81,5,2,7,0.00
2013-4-21,73.9,58.2,42.3,40.7,35.4,29.9,74,45,21,30.10,29.97,4,2,7,0.00
2013-4-22,52.0,48.1,45.3,40.7,39.6,38.5,82,73,63,30.04,29.99,2,1,2,0.00
2013-4-23,78.8,62.6,47.3,50.9,45.4,39.4,77,56,30,29.94,29.76,7,2,7,0.00
2013-4-24,60.8,59.5,55.8,49.7,49.2,48.7,80,69,65,29.78,29.74,4,2,4,0.00
2013-4-25,71.2,55.8,39.9,43.2,38.5,32.6,96,57,26,30.06,29.95,4,2,5,0.00
2013-4-26,75.0,56.7,43.0,48.9,40.8,35.0,84,58,27,30.12,30.01,4,1,7,0.00
2013-4-27,55.9,53.6,51.1,55.7,52.4,47.4,99,96,78,30.08,29.85,2,0,4,0.46
2013-4-28,58.8,55.7,52.2,58.6,55.3,51.6,99,98,97,29.85,29.68,2,1,6,1.17
2013-4-29,77.5,61.8,54.5,60.4,56.8,53.7,99,85,50,29.77,29.68,4,1,4,0.00
2013-4-30,86.9,69.7,52.9,63.4,56.1,52.0,99,67,34,29.80,29.69,4,1,6,0.00
2013-5-1,83.7,68.9,58.3,60.1,57.3,53.6,93,68,43,29.93,29.82,4,1,8,0.00
2013-5-2,79.7,66.2,56.5,60.8,56.3,52.5,89,72,45,29.93,29.83,3,1,3,0.00
2013-5-3,81.5,67.7,56.1,59.0,54.7,50.5,92,65,43,29.85,29.71,4,2,8,0.00
2013-5-4,61.3,57.3,53.6,56.6,51.3,42.5,99,82,57,29.71,29.63,6,1,7,0.45
2013-5-5,58.5,54.7,51.6,58.2,54.2,51.3,99,98,97,29.62,29.51,3,1,3,0.70
2013-5-6,64.2,55.7,48.4,53.8,50.3,48.1,99,83,64,29.64,29.49,4,2,6,0.13
2013-5-7,72.3,61.4,47.7,55.8,52.5,47.4,99,75,52,29.70,29.61,2,1,4,0.00
2013-5-8,74.8,63.2,56.1,65.2,59.4,54.2,99,88,64,29.80,29.67,3,1,6,0.20
2013-5-9,84.9,66.7,55.6,67.9,60.0,55.3,99,81,43,29.85,29.76,2,0,2,0.02
2013-5-10,75.0,66.6,59.5,63.6,59.0,56.4,95,77,62,29.81,29.67,4,2,5,0.00
2013-5-11,76.3,67.0,57.6,67.4,59.4,49.3,98,77,55,29.72,29.60,7,2,10,0.02
2013-5-12,73.2,59.7,49.6,51.5,39.8,29.9,87,51,21,29.87,29.72,5,1,5,0.00
2013-5-13,73.0,57.3,43.5,43.4,37.0,31.9,81,50,22,29.96,29.85,4,1,5,0.00
2013-5-14,80.1,66.2,45.1,56.3,48.4,38.3,86,55,30,29.95,29.77,7,2,8,0.00
2013-5-15,68.2,64.0,61.2,56.5,55.7,55.3,82,75,64,29.86,29.79,5,2,5,0.00
2013-5-16,82.9,72.1,63.1,63.2,58.7,52.0,86,63,50,29.81,29.71,4,1,5,0.00
2013-5-17,86.9,70.0,61.3,68.5,64.0,60.2,99,83,50,29.84,29.75,2,0,2,0.12
2013-5-18,73.0,67.8,63.0,70.1,66.5,62.1,99,96,88,29.81,29.75,3,0,4,0.17
2013-5-19,80.1,67.7,62.8,72.7,66.4,61.9,99,96,78,29.81,29.74,4,1,7,0.15
2013-5-20,87.3,72.1,60.6,71.7,66.1,60.2,99,83,55,29.86,29.73,4,1,4,0.00
2013-5-21,91.6,74.2,64.9,74.4,67.5,62.4,99,82,49,29.79,29.67,3,1,3,0.00
2013-5-22,91.4,71.7,62.8,70.5,65.0,61.6,97,81,50,29.70,29.58,4,1,8,0.01
2013-5-23,87.6,73.0,63.3,67.9,62.4,54.7,99,72,44,29.75,29.63,6,2,8,0.02
2013-5-24,77.9,62.9,53.8,56.9,49.2,42.5,97,64,34,30.00,29.75,5,1,5,0.01
2013-5-25,85.1,65.2,48.4,52.0,45.9,39.6,87,54,26,30.20,29.91,4,1,8,0.11
2013-5-26,82.6,67.7,53.6,56.2,51.7,44.3,92,59,33,30.28,30.17,3,1,4,0.01
2013-5-27,88.5,73.5,57.6,61.8,57.9,53.5,90,60,39,30.21,30.08,6,2,9,0.00
2013-5-28,89.6,76.6,64.4,64.6,62.0,59.7,85,62,41,30.18,30.07,5,2,8,0.00
2013-5-29,91.0,77.6,64.2,67.4,63.2,58.8,89,63,42,30.20,30.08,4,1,4,0.00
2013-5-30,84.6,50.7,37.2,65.6,38.1,22.3,96,64,42,29.95,29.62,3,1,3,9.94
2013-5-31,91.8,75.9,65.5,66.3,62.9,60.5,88,66,40,29.99,29.87,9,2,9,0.00
2013-6-1,88.3,77.7,68.7,70.0,66.1,62.6,99,69,48,29.89,29.77,6,2,12,0.25
2013-6-2,76.6,69.1,65.7,71.9,68.3,65.4,99,97,83,29.79,29.71,4,1,5,1.15
2013-6-3,83.1,70.0,63.3,68.8,64.4,60.4,99,84,56,29.82,29.73,4,1,4,0.00
2013-6-4,90.0,71.5,61.0,65.7,61.6,58.6,96,74,40,29.87,29.81,4,1,4,0.00
2013-6-5,89.8,73.5,63.9,70.2,66.5,61.2,99,81,47,29.86,29.74,4,1,6,0.15
2013-6-6,66.0,64.8,64.0,65.7,64.3,63.2,99,98,97,29.76,29.68,1,0,2,0.00
2013-6-7,86.9,73.9,66.2,69.7,67.0,62.3,97,81,53,29.69,29.54,4,1,4,0.02
2013-6-8,86.0,73.9,65.7,68.9,66.3,63.4,99,79,54,29.86,29.68,3,1,5,0.00
2013-6-9,91.8,73.1,65.8,71.7,67.9,64.3,99,86,47,29.93,29.81,3,1,10,0.37
2013-6-10,69.3,68.5,68.0,68.4,67.6,66.9,99,97,94,29.80,29.74,4,1,6,0.14
2013-6-11,89.8,74.3,64.4,71.9,67.5,64.1,99,82,44,29.86,29.78,2,0,2,0.01
2013-6-12,72.7,71.5,70.3,69.0,68.4,67.9,93,90,86,29.85,29.82,0,0,0,0.00
2013-6-13,82.9,76.7,69.3,78.3,71.7,64.6,97,85,75,29.77,29.58,6,2,6,0.51
2013-6-14,68.5,62.9,62.4,63.8,61.2,61.0,95,94,85,29.81,29.74,2,1,2,0.00
2013-6-15,90.5,81.4,73.2,66.0,63.6,59.7,74,55,38,29.95,29.86,4,1,6,0.05
2013-6-16,90.1,77.9,68.5,70.0,66.5,62.3,99,69,45,29.94,29.83,8,1,8,1.41
2013-6-17,81.1,73.4,68.7,72.5,70.4,68.5,99,91,71,29.87,29.75,4,1,4,0.08
2013-6-18,76.5,70.7,67.1,74.9,68.0,65.6,99,91,82,29.77,29.68,4,1,4,1.24
2013-6-19,82.6,71.9,64.0,68.6,66.2,63.2,99,84,57,29.91,29.77,2,1,2,0.00
2013-6-20,83.7,72.4,66.2,69.1,66.4,65.3,98,82,61,30.01,29.90,2,1,2,0.00
2013-6-21,68.7,67.7,67.1,65.7,65.7,65.5,95,93,90,30.03,30.00,1,0,1,0.00
2013-6-22,95.5,79.2,65.5,70.2,67.5,64.8,98,70,42,30.06,29.91,4,1,4,0.00
2013-6-23,96.3,79.0,67.1,70.7,68.1,65.2,95,71,41,30.04,29.93,4,1,4,0.00
2013-6-24,91.0,77.2,67.8,72.5,69.2,66.1,95,78,51,30.03,29.91,4,1,4,0.00
2013-6-25,88.5,76.0,70.7,73.6,70.5,68.4,95,84,60,29.98,29.85,3,1,3,0.00
2013-6-26,87.4,75.7,70.3,74.7,71.8,67.0,95,88,64,29.87,28.61,4,1,6,0.04
2013-6-27,86.0,77.2,66.2,77.4,72.4,65.4,99,86,70,29.75,29.62,4,1,7,0.73
2013-6-28,73.2,71.2,70.3,72.3,69.1,66.2,98,93,81,29.67,29.53,2,1,2,0.01
2013-6-29,87.6,75.1,65.1,69.7,66.0,62.0,99,75,48,29.55,29.50,5,1,6,0.22
2013-6-30,91.2,77.2,66.2,67.8,65.4,61.7,93,69,41,29.63,29.52,4,1,5,0.00
2013-7-1,87.4,69.7,63.7,72.9,66.2,62.8,99,89,56,29.72,29.60,2,1,4,0.47
2013-7-2,80.1,72.7,69.6,72.9,69.7,67.8,95,91,76,29.85,29.81,6,0,6,0.24
2013-7-3,73.9,73.9,73.9,72.1,72.1,72.1,94,94,94,29.98,29.92,1,1,1,0.26
2013-7-11,79.3,74.9,72.5,75.2,71.2,69.0,90,88,76,29.92,29.92,4,0,4,0.26
2013-7-12,72.1,70.2,69.1,68.7,66.8,66.1,90,89,88,29.92,29.92,1,0,1,0.00
2013-7-13,91.6,76.1,66.6,70.4,66.7,62.1,87,74,46,29.92,29.92,2,1,6,0.02
2013-7-14,91.4,78.2,69.3,73.0,69.1,64.7,87,75,54,29.92,29.92,4,1,4,0.00
2013-7-15,90.1,76.7,68.5,70.8,67.5,64.8,89,75,47,29.92,29.92,2,1,3,0.00
2013-7-16,97.2,80.1,70.2,71.5,69.2,66.5,89,71,43,29.92,29.92,2,1,4,0.00
2013-7-17,101.1,80.2,71.6,74.0,70.2,67.0,91,73,41,29.92,29.92,4,1,13,0.05
2013-7-18,93.6,78.5,69.6,74.1,71.1,67.7,94,79,49,29.92,29.92,2,0,2,0.14
2013-7-19,77.0,73.1,71.4,72.1,69.8,68.5,92,89,85,29.92,29.92,1,0,1,0.00
2013-7-20,93.6,81.3,70.3,74.6,70.9,65.1,90,72,51,29.92,29.92,4,1,8,0.32
2013-7-21,86.4,74.4,70.5,75.1,70.5,67.0,95,88,66,29.92,29.92,3,1,3,0.08
2013-7-22,82.9,73.9,71.2,74.8,70.2,68.1,93,88,68,29.92,29.92,6,1,6,0.14
2013-7-23,85.5,74.6,69.3,72.6,69.3,66.5,93,84,64,29.92,29.92,4,2,5,0.11
2013-7-24,83.3,75.8,70.9,73.7,69.8,64.9,94,82,68,29.92,29.92,4,1,5,0.00
2013-7-25,89.2,74.7,66.2,66.5,63.9,60.9,91,71,44,29.92,29.92,3,1,5,0.00
2013-7-26,88.3,73.4,63.1,70.6,64.9,58.6,89,76,51,29.92,29.92,2,1,2,0.01
2013-7-27,79.3,74.0,68.5,72.5,67.9,63.7,92,82,66,29.92,29.92,3,0,7,0.12
2013-7-28,86.2,74.4,68.0,67.7,63.0,56.0,91,69,47,29.92,29.92,5,1,5,0.00
2013-7-29,88.0,71.1,59.9,61.0,57.0,53.9,84,63,33,29.92,29.92,4,1,4,0.00
2013-7-30,79.7,69.2,61.0,65.6,61.2,56.5,88,76,57,29.92,29.92,3,0,3,0.00
2013-7-31,77.4,70.4,64.9,68.5,65.7,61.8,93,85,72,29.92,29.92,6,1,6,0.05
2013-8-1,90.3,77.1,70.5,70.6,67.6,64.5,92,74,46,29.92,29.92,4,1,4,0.00
2013-8-2,92.7,75.4,65.8,67.2,64.2,61.9,90,70,42,29.92,29.92,2,1,2,0.00
2013-8-3,89.8,77.4,68.2,70.6,67.5,63.2,85,73,50,29.92,29.92,5,1,9,0.13
2013-8-4,91.6,78.2,69.6,70.2,65.2,58.9,90,66,40,29.92,29.92,4,1,9,0.00
2013-8-5,92.8,75.4,63.3,66.2,61.6,58.6,85,65,39,29.92,29.92,4,1,4,0.00
2013-8-6,72.3,71.6,71.1,65.1,63.7,62.1,81,76,72,29.92,29.92,2,0,2,0.00
2013-8-7,84.4,77.0,72.1,74.2,70.9,68.1,89,82,67,29.92,29.92,4,1,4,0.08
2013-8-8,81.5,74.9,70.7,74.2,69.9,66.7,91,84,76,29.92,29.92,2,1,2,0.05
2013-8-9,93.0,79.0,70.5,75.1,71.4,67.7,92,78,54,29.92,29.92,5,1,6,0.01
2013-8-10,95.0,75.3,71.2,73.5,70.2,68.8,92,85,48,29.92,29.92,3,0,3,0.05
2013-8-11,91.4,76.9,70.2,73.5,70.8,67.7,94,83,54,29.92,29.92,6,1,6,0.25
2013-8-12,72.1,71.2,70.5,69.7,68.9,68.4,93,93,92,29.92,29.92,1,0,1,0.00
2013-8-13,88.7,76.2,71.6,73.0,70.8,67.4,93,84,55,29.92,29.92,7,2,7,0.26
2013-8-14,85.8,71.8,63.9,65.4,60.6,55.8,87,69,44,29.92,29.92,6,1,6,0.01
2013-8-15,88.0,72.1,61.0,65.9,60.2,53.7,80,67,45,29.92,29.92,4,1,4,0.01
2013-8-16,84.9,72.0,64.6,66.9,63.7,60.9,91,76,50,29.92,29.92,2,0,2,0.00
2013-8-17,76.5,70.2,64.2,64.9,62.1,59.6,91,76,60,29.92,29.92,4,1,8,0.22
2013-8-18,82.2,71.3,66.2,69.4,66.2,64.1,94,84,59,29.92,29.92,4,1,6,0.19
2013-8-19,81.7,72.3,68.2,71.4,67.5,65.9,93,85,66,29.92,29.92,2,0,2,0.02
2013-8-20,86.5,74.4,68.4,70.9,68.1,65.9,93,82,56,29.92,29.92,2,0,2,0.01
2013-8-22,88.5,78.8,69.1,72.6,69.1,67.3,94,73,51,29.92,29.92,3,0,3,0.12
2013-8-23,89.8,73.4,68.5,72.0,68.7,66.4,94,86,51,29.92,29.92,4,1,4,0.17
2013-8-24,90.0,75.1,65.5,69.4,65.0,58.7,96,74,41,29.92,29.92,6,1,8,0.00
2013-8-25,87.1,71.9,62.6,65.0,61.0,57.7,88,70,45,29.92,29.92,3,1,3,0.00
2013-8-26,88.7,74.2,62.1,65.4,62.3,58.4,91,68,43,29.92,29.92,3,1,4,0.00
2013-8-27,88.7,75.8,66.6,69.4,66.1,63.2,91,73,49,29.92,29.92,4,1,6,0.00
2013-8-28,90.5,78.5,69.3,70.6,68.5,66.8,93,73,48,29.92,29.92,5,1,5,0.00
2013-8-29,75.4,74.2,73.6,70.0,69.6,69.0,88,86,81,29.92,29.92,3,1,3,0.00
2013-8-30,92.7,80.9,69.6,71.9,69.5,66.9,92,70,46,29.92,29.92,8,3,11,0.00
2013-8-31,91.9,81.0,69.6,73.3,70.3,65.8,91,72,48,29.92,29.92,9,4,17,0.33
2013-9-1,88.2,76.6,68.4,72.1,69.3,66.5,95,80,56,29.92,29.92,11,3,16,0.11
2013-9-2,86.4,76.1,69.6,71.9,69.3,67.4,94,80,62,29.92,29.92,7,3,11,0.00
2013-9-3,74.1,68.8,64.9,70.7,66.6,63.8,96,93,84,29.92,29.92,4,2,4,0.41
2013-9-4,87.8,73.4,62.8,64.8,62.2,59.5,90,70,44,29.92,29.92,7,2,7,0.00
2013-9-5,87.1,72.6,62.2,64.6,61.1,55.1,88,70,37,29.92,29.92,6,2,8,0.00
2013-9-6,88.7,75.8,64.0,65.2,62.1,58.1,91,66,36,29.92,29.92,8,2,10,0.00
2013-9-7,88.5,76.0,63.3,67.3,64.2,60.6,92,69,45,29.92,29.92,7,2,8,0.00
2013-9-8,91.0,77.9,68.0,69.3,66.4,64.1,90,70,44,29.92,29.92,5,2,6,0.00
2013-9-9,91.8,77.1,66.6,68.6,66.3,64.2,93,72,43,29.92,29.92,6,2,8,0.00
2013-9-10,91.4,78.6,68.7,69.2,66.6,63.8,91,69,42,29.92,29.92,10,2,10,0.00
2013-9-11,73.9,70.9,69.1,67.0,65.8,65.1,90,84,79,29.92,29.92,2,1,2,0.00
2013-9-12,88.2,73.8,66.4,71.3,67.6,63.9,96,82,53,29.92,29.92,7,2,11,0.37
2013-9-13,80.6,69.2,59.2,65.2,57.9,50.2,97,71,38,29.92,29.92,6,3,8,0.01
2013-9-14,78.4,64.6,52.3,54.1,51.4,48.3,87,64,40,29.92,29.92,9,2,9,0.00
2013-9-15,82.8,68.9,54.0,62.1,57.1,51.4,92,69,45,29.92,29.92,9,2,13,0.00
2013-9-16,84.2,69.7,61.7,63.9,60.8,58.3,93,75,44,29.92,29.92,7,2,7,0.00
2013-9-17,79.5,70.0,61.5,64.8,61.2,57.0,86,74,55,29.92,29.92,4,1,5,0.00
2013-9-18,72.5,66.7,63.1,63.3,60.3,57.7,89,80,63,29.92,29.92,3,1,3,0.00
2013-9-19,83.1,70.2,60.6,64.8,62.1,58.9,95,77,54,29.92,29.92,7,2,7,0.00
2013-9-20,85.1,73.6,64.2,65.1,63.3,61.3,93,72,47,29.92,29.92,8,2,11,0.00
2013-9-21,71.8,66.5,62.4,66.4,63.7,60.0,97,91,74,29.92,29.92,9,2,13,1.63
2013-9-22,78.6,65.7,54.7,57.2,54.5,52.1,97,70,41,29.92,29.92,6,2,10,0.01
2013-9-23,80.6,64.5,53.1,60.2,55.4,51.0,93,75,45,29.92,29.92,4,1,4,0.00
2013-9-24,81.3,67.8,59.0,64.0,60.5,57.3,95,79,52,29.92,29.92,5,1,5,0.02
2013-9-25,69.4,66.6,64.2,65.5,64.3,62.8,96,92,85,29.92,29.92,2,0,2,0.20
2013-9-26,82.8,68.0,61.7,64.3,60.9,57.9,97,80,46,29.92,29.92,4,1,4,0.00
2013-9-27,84.6,68.9,57.4,62.5,57.6,54.2,95,70,42,29.92,29.92,5,1,8,0.00
2013-9-28,81.9,67.3,58.3,61.0,58.1,55.8,93,74,49,29.92,29.92,6,2,7,0.00
2013-9-29,74.1,65.9,60.6,59.4,57.9,56.4,89,76,59,29.92,29.92,5,2,7,0.00
2013-9-30,77.7,65.1,56.5,60.4,57.5,55.4,97,79,48,29.92,29.92,6,2,6,0.00
2013-10-1,80.1,66.5,57.7,62.1,58.9,56.0,95,78,52,29.92,29.92,6,2,6,0.00
2013-10-2,81.3,69.2,59.7,66.0,62.3,57.7,93,80,56,29.92,29.92,4,1,4,0.00
2013-10-3,84.6,72.1,64.6,65.3,63.8,62.3,95,77,48,29.92,29.92,8,2,8,0.00
2013-10-4,87.3,70.3,63.0,64.8,62.6,61.1,95,78,45,29.92,29.92,5,1,5,0.00
2013-10-5,87.6,74.8,63.7,66.8,64.0,61.0,93,71,45,29.92,29.92,6,2,10,0.00
2013-10-6,86.0,72.8,63.7,64.7,61.8,60.3,91,70,44,29.92,29.92,12,4,13,0.00
2013-10-7,73.4,59.6,54.0,56.6,50.5,46.8,96,74,42,29.92,29.92,4,2,4,0.18
2013-10-8,76.5,61.2,50.2,52.8,48.7,44.1,83,65,42,29.92,29.92,5,2,5,0.00
2013-10-9,79.7,62.5,51.6,56.5,52.1,48.1,89,71,43,29.92,29.92,3,1,3,0.00
2013-10-10,61.5,56.7,53.1,55.4,53.4,51.4,94,89,77,29.92,29.92,3,1,3,0.00
2013-10-11,82.6,67.5,53.8,59.1,54.7,50.2,91,66,42,29.92,29.92,4,2,8,0.00
2013-10-12,83.5,67.8,55.8,58.7,55.7,53.7,94,68,41,29.92,29.92,5,1,8,0.00
2013-10-13,77.7,66.7,59.4,61.4,58.9,55.3,90,77,57,29.92,29.92,4,1,4,0.00
2013-10-14,83.3,68.6,60.4,62.4,58.9,56.1,89,73,44,29.92,29.92,4,2,4,0.00
2013-10-15,72.9,65.6,60.4,61.1,59.3,57.2,91,80,64,29.92,29.92,4,2,5,0.00
2013-10-16,67.6,63.7,60.1,60.1,57.8,55.7,92,81,72,29.92,29.92,6,2,6,0.01
2013-10-17,66.9,61.3,54.7,64.8,58.0,49.6,95,89,78,29.92,29.92,8,3,8,0.33
2013-10-18,66.7,55.1,46.9,50.6,47.7,45.0,98,78,50,29.92,29.92,6,2,6,0.00
2013-10-19,66.2,56.0,48.9,51.5,48.8,43.9,92,77,59,29.92,29.92,11,3,14,0.00
2013-10-20,67.6,53.0,39.6,45.2,39.9,37.0,95,65,36,29.92,29.92,6,2,8,0.00
2013-10-21,70.0,53.4,41.2,48.3,43.6,39.3,94,72,42,29.92,29.92,12,2,12,0.00
2013-10-22,65.3,56.5,49.8,51.2,48.4,46.4,90,75,60,29.92,29.92,8,2,8,0.00
2013-10-23,52.7,46.4,37.0,47.8,38.4,31.8,90,74,53,29.92,29.92,11,4,11,0.00
2013-10-24,52.5,43.9,36.7,38.9,36.1,31.3,89,75,55,29.92,29.92,8,2,8,0.00
2013-10-25,54.1,40.5,32.5,30.6,27.6,22.6,81,62,31,29.92,29.92,6,2,8,0.00
2013-10-26,57.0,44.5,29.8,33.2,28.7,22.9,86,58,27,29.92,29.92,14,5,17,0.00
2013-10-27,60.8,55.8,50.0,49.7,41.8,33.2,78,60,49,29.92,29.92,8,2,8,0.00
2013-10-28,64.6,58.2,52.7,54.2,51.6,49.1,93,79,63,29.92,29.92,10,3,11,0.00
2013-10-29,71.4,61.2,53.1,56.2,52.6,51.1,94,75,51,29.92,29.92,5,1,5,0.00
2013-10-30,78.3,66.6,59.5,57.7,55.4,53.0,85,68,47,29.92,29.92,9,4,9,0.00
2013-10-31,72.3,67.3,61.2,60.0,56.6,54.3,81,69,58,29.92,29.92,23,6,23,0.00
2013-11-1,70.2,64.0,61.2,63.5,61.1,59.1,95,91,71,29.92,29.92,19,9,19,0.00
2013-11-2,61.5,53.6,46.6,48.3,42.4,38.8,90,67,43,29.92,29.92,7,2,8,0.00
2013-11-3,60.3,51.6,41.2,41.1,37.7,35.1,90,62,43,29.92,29.92,4,2,8,0.00
2013-11-4,66.7,51.1,38.8,39.9,37.2,34.5,86,61,34,29.92,29.92,8,2,8,0.00
2013-11-5,68.5,54.8,45.1,42.1,38.6,35.6,72,56,34,29.92,29.92,6,1,6,0.00
2013-11-6,75.4,61.1,48.9,53.9,47.2,31.8,74,61,46,29.92,29.92,10,4,10,0.00
2013-11-7,63.1,52.1,41.2,57.8,43.3,31.0,97,74,43,29.92,29.92,11,4,13,0.00
2013-11-8,60.4,44.5,35.8,31.6,25.2,17.9,77,50,23,29.92,29.92,6,2,6,0.00
2013-11-9,55.4,46.3,34.0,34.9,30.5,25.2,79,55,40,29.92,29.92,14,4,16,0.00
2013-11-10,69.4,55.2,41.7,41.2,32.3,19.0,77,45,22,29.92,29.92,9,3,11,0.00
2013-11-11,65.5,49.6,37.6,31.4,27.0,22.0,65,44,21,29.92,29.92,10,2,10,0.00
2013-11-12,53.4,39.5,27.7,40.6,25.2,12.7,80,57,43,29.92,29.92,17,5,17,0.00
2013-11-13,46.0,33.0,24.6,18.5,15.4,12.6,69,50,26,29.92,29.92,5,2,5,0.00
2013-11-14,57.7,40.8,25.3,26.2,20.0,15.4,75,46,22,29.92,29.92,8,2,8,0.00
2013-11-15,48.9,42.0,36.1,43.7,32.2,21.3,98,70,44,29.92,29.92,8,2,8,0.00
2013-11-16,46.4,45.7,44.6,46.1,45.1,43.8,99,98,97,29.92,29.92,2,1,4,0.00
2013-11-17,66.0,55.2,46.6,48.4,43.5,38.7,90,66,44,29.92,29.92,4,2,4,0.00
2013-11-18,57.7,48.1,41.2,41.2,38.1,30.0,89,70,47,29.92,29.92,5,2,8,0.20
2013-11-19,55.9,44.7,36.1,29.8,26.8,20.7,66,51,26,29.92,29.92,8,2,8,0.00
2013-11-20,63.0,47.0,36.3,31.7,28.6,24.5,71,51,24,29.92,29.92,7,2,7,0.00
2013-11-21,62.1,51.7,42.6,45.8,39.0,28.6,74,62,51,29.92,29.92,4,2,4,0.00
2013-11-22,56.3,54.3,51.4,56.0,51.4,44.5,99,90,73,29.92,29.92,8,2,10,0.09
2013-11-23,51.8,42.8,29.5,49.0,32.8,15.3,92,69,46,29.92,29.92,14,4,14,0.00
2013-11-24,38.8,27.5,21.7,15.2,7.5,-0.8,62,44,21,29.92,29.92,12,4,17,0.00
2013-11-25,37.4,30.8,23.7,30.0,13.9,6.4,91,51,29,29.92,29.92,4,1,7,0.07
2013-11-26,42.4,36.8,32.4,42.2,36.2,30.6,99,97,93,29.92,29.92,11,3,14,1.49
2013-11-27,35.6,30.9,27.7,32.6,23.9,16.4,96,76,62,29.92,29.92,11,0,11,0.00
2013-11-28,47.1,32.8,21.4,22.3,18.7,14.9,76,57,33,29.92,29.92,6,1,8,0.05
2013-11-29,53.4,39.3,27.0,31.1,24.3,18.8,88,59,29,29.92,29.92,5,2,9,0.00
2013-11-30,56.7,43.1,30.6,31.3,28.1,21.7,77,57,36,29.92,29.92,7,2,8,0.00
2013-12-1,57.7,44.3,30.7,36.5,32.0,26.0,87,64,42,29.92,29.92,7,2,7,0.00
2013-12-2,47.5,45.7,44.1,45.3,42.4,36.2,96,89,65,29.92,29.92,4,2,4,0.01
2013-12-3,57.2,49.9,44.8,51.1,47.3,43.8,99,91,78,29.92,29.92,5,1,5,0.11
2013-12-4,69.1,60.5,50.0,57.3,52.9,47.9,93,77,63,29.92,29.92,19,6,19,0.00
2013-12-5,71.2,66.8,62.4,63.9,61.1,56.5,91,82,74,29.92,29.92,12,7,16,0.02
2013-12-6,57.7,45.7,40.1,53.3,44.2,39.1,98,95,85,29.92,29.92,11,5,11,0.76
2013-12-7,39.2,36.0,34.3,35.3,32.1,29.7,94,86,81,29.92,29.92,8,5,9,0.00
2013-12-8,42.6,38.8,33.8,42.1,37.6,29.8,98,95,83,29.92,29.92,5,2,6,0.84
2013-12-9,53.4,45.5,38.5,47.8,42.8,36.4,98,91,75,29.92,29.92,9,4,9,0.37
2013-12-10,45.0,34.5,28.6,36.1,26.6,19.3,95,74,45,29.92,29.92,9,3,9,0.44
2013-12-11,51.6,35.8,25.0,24.7,21.6,18.5,80,58,33,29.92,29.92,8,3,8,0.00
2013-12-12,43.2,31.4,24.3,21.0,13.5,7.5,70,49,26,29.92,29.92,6,2,8,0.00
2013-12-13,52.3,36.1,24.3,22.9,17.9,12.8,68,49,25,29.92,29.92,4,2,4,0.00
2013-12-14,46.8,42.0,36.0,45.7,37.6,21.5,97,86,47,29.92,29.92,7,2,12,0.40
2013-12-15,43.2,34.6,29.3,41.6,28.5,24.4,94,78,69,29.92,29.92,8,4,8,0.02
2013-12-16,49.8,39.4,28.8,32.6,29.4,24.4,85,68,50,29.92,29.92,12,7,15,0.00
2013-12-17,56.5,46.0,36.3,35.4,29.7,19.4,72,54,42,29.92,29.92,19,7,24,0.00
2013-12-18,50.0,36.9,27.1,22.4,18.5,15.5,73,49,25,29.92,29.92,9,3,9,0.00
2013-12-19,59.9,42.8,30.0,28.3,22.8,16.0,71,47,23,29.92,29.92,7,3,7,0.00
2013-12-20,56.5,50.0,36.7,42.8,34.1,25.9,69,55,43,29.92,29.92,5,2,5,0.00
2013-12-21,71.8,61.6,51.6,60.8,50.5,39.9,80,67,62,29.92,29.92,29,6,29,0.01
2013-12-22,70.7,58.1,55.4,63.3,55.7,52.9,98,92,71,29.92,29.92,15,6,15,1.25
2013-12-23,54.7,40.3,33.1,52.9,34.3,23.7,95,79,68,29.92,29.92,11,5,14,0.07
2013-12-24,38.1,31.1,23.4,23.7,15.4,8.5,70,53,30,29.92,29.92,10,4,12,0.00
2013-12-25,45.7,32.0,19.2,21.5,16.3,8.7,68,54,34,29.92,29.92,9,2,10,0.00
2013-12-26,55.2,40.4,28.2,27.4,21.9,16.9,71,49,28,29.92,29.92,7,3,8,0.00
2013-12-27,57.2,42.6,28.4,27.8,22.2,18.1,73,46,27,29.92,29.92,5,2,8,0.00
2013-12-28,45.1,38.2,30.6,39.1,29.5,20.4,98,72,49,29.92,29.92,4,2,5,0.37
2013-12-29,46.6,43.3,39.9,44.1,41.6,38.2,99,94,85,29.92,29.92,12,5,12,0.58
2013-12-30,43.2,37.2,33.8,40.6,31.1,25.9,95,79,66,29.92,29.92,8,3,8,0.00
2013-12-31,49.1,34.7,26.2,27.4,22.5,18.7,90,63,35,29.92,29.92,8,2,9,0.00
2014-1-1,50.9,38.0,26.1,29.1,24.1,18.5,84,59,35,29.92,29.92,11,3,11,0.00
2014-1-2,39.6,32.0,20.3,38.5,25.8,7.9,97,78,58,29.92,29.92,11,2,21,0.37